#Datum;Uhrzeit;WR;Pac;DaySum;Status;WR;Pac;DaySum;Status;Pdc1;Udc;Temp;WR;Pac;DaySum;Status;Pdc1;Udc;Temp;WR;Pac;DaySum;Status;Pdc1;Udc;Temp;WR;Pac;DaySum;Status;Pdc1;Pdc2;Udc1;Udc2;Temp;WR;Pac;DaySum;Status;Pdc1;Pdc2;Udc1;Udc2;Temp;WR;Pac;DaySum;Status;Pdc1;Udc;Temp;WR;Pac;DaySum;Status;Pdc1;Udc;Temp;WR;Pac;DaySum;Status;Pdc1;Udc;Temp
12.03.21;23:55:00;1;1111;17933;0;2;0;18089;0;0;0;0;3;0;11598;0;0;0;0;4;0;17020;0;0;0;0;5;0;0;0;0;0;0;0;0;6;0;29337;0;0;0;0;0;0;7;0;24507;0;0;0;0;8;0;24386;0;0;0;0;9;0;13186;0;0;0;0
12.03.21;23:50:00;1;1106;17840;0;2;0;18089;0;0;0;0;3;0;11598;0;0;0;0;4;0;17020;0;0;0;0;5;0;0;0;0;0;0;0;0;6;0;29337;0;0;0;0;0;0;7;0;24507;0;0;0;0;8;0;24386;0;0;0;0;9;0;13186;0;0;0;0
12.03.21;23:45:00;1;702;17745;0;2;0;18089;0;0;0;0;3;0;11598;0;0;0;0;4;0;17020;0;0;0;0;5;0;0;0;0;0;0;0;0;6;0;29337;0;0;0;0;0;0;7;0;24507;0;0;0;0;8;0;24386;0;0;0;0;9;0;13186;0;0;0;0
12.03.21;23:40:00;1;745;17686;0;2;0;18089;0;0;0;0;3;0;11598;0;0;0;0;4;0;17020;0;0;0;0;5;0;0;0;0;0;0;0;0;6;0;29337;0;0;0;0;0;0;7;0;24507;0;0;0;0;8;0;24386;0;0;0;0;9;0;13186;0;0;0;0
12.03.21;23:35:00;1;723;17624;0;2;0;18089;0;0;0;0;3;0;11598;0;0;0;0;4;0;17020;0;0;0;0;5;0;0;0;0;0;0;0;0;6;0;29337;0;0;0;0;0;0;7;0;24507;0;0;0;0;8;0;24386;0;0;0;0;9;0;13186;0;0;0;0
12.03.21;23:30:00;1;873;17565;0;2;0;18089;0;0;0;0;3;0;11598;0;0;0;0;4;0;17020;0;0;0;0;5;0;0;0;0;0;0;0;0;6;0;29337;0;0;0;0;0;0;7;0;24507;0;0;0;0;8;0;24386;0;0;0;0;9;0;13186;0;0;0;0
12.03.21;23:25:00;1;907;17503;0;2;0;18089;0;0;0;0;3;0;11598;0;0;0;0;4;0;17020;0;0;0;0;5;0;0;0;0;0;0;0;0;6;0;29337;0;0;0;0;0;0;7;0;24507;0;0;0;0;8;0;24386;0;0;0;0;9;0;13186;0;0;0;0
12.03.21;23:20:00;1;1238;17438;0;2;0;18089;0;0;0;0;3;0;11598;0;0;0;0;4;0;17020;0;0;0;0;5;0;0;0;0;0;0;0;0;6;0;29337;0;0;0;0;0;0;7;0;24507;0;0;0;0;8;0;24386;0;0;0;0;9;0;13186;0;0;0;0
12.03.21;23:15:00;1;1255;17330;0;2;0;18089;0;0;0;0;3;0;11598;0;0;0;0;4;0;17020;0;0;0;0;5;0;0;0;0;0;0;0;0;6;0;29337;0;0;0;0;0;0;7;0;24507;0;0;0;0;8;0;24386;0;0;0;0;9;0;13186;0;0;0;0
12.03.21;23:10:00;1;1264;17225;0;2;0;18089;0;0;0;0;3;0;11598;0;0;0;0;4;0;17020;0;0;0;0;5;0;0;0;0;0;0;0;0;6;0;29337;0;0;0;0;0;0;7;0;24507;0;0;0;0;8;0;24386;0;0;0;0;9;0;13186;0;0;0;0
12.03.21;23:05:00;1;1285;17120;0;2;0;18089;0;0;0;0;3;0;11598;0;0;0;0;4;0;17020;0;0;0;0;5;0;0;0;0;0;0;0;0;6;0;29337;0;0;0;0;0;0;7;0;24507;0;0;0;0;8;0;24386;0;0;0;0;9;0;13186;0;0;0;0
12.03.21;23:00:00;1;1285;17013;0;2;0;18089;0;0;0;0;3;0;11598;0;0;0;0;4;0;17020;0;0;0;0;5;0;0;0;0;0;0;0;0;6;0;29337;0;0;0;0;0;0;7;0;24507;0;0;0;0;8;0;24386;0;0;0;0;9;0;13186;0;0;0;0
12.03.21;22:55:00;1;1333;16906;0;2;0;18089;0;0;0;0;3;0;11598;0;0;0;0;4;0;17020;0;0;0;0;5;0;0;0;0;0;0;0;0;6;0;29337;2;0;0;0;0;0;7;0;24507;0;0;0;0;8;0;24386;0;0;0;0;9;0;13186;0;0;0;0
12.03.21;22:50:00;1;1311;16795;0;2;0;18089;0;0;0;0;3;0;11598;0;0;0;0;4;0;17020;0;0;0;0;5;0;0;0;0;0;0;0;0;6;0;29337;2;0;0;0;0;0;7;0;24507;0;0;0;0;8;0;24386;0;0;0;0;9;0;13186;0;0;0;0
12.03.21;22:45:00;1;1294;16685;0;2;0;18089;0;0;0;0;3;0;11598;0;0;0;0;4;0;17020;0;0;0;0;5;0;0;0;0;0;0;0;0;6;0;29337;2;0;0;0;0;0;7;0;24507;0;0;0;0;8;0;24386;0;0;0;0;9;0;13186;0;0;0;0
12.03.21;22:40:00;1;1217;16578;0;2;0;18089;0;0;0;0;3;0;11598;0;0;0;0;4;0;17020;0;0;0;0;5;0;0;0;0;0;0;0;0;6;0;29337;2;0;0;0;0;0;7;0;24507;0;0;0;0;8;0;24386;0;0;0;0;9;0;13186;0;0;0;0
12.03.21;22:35:00;1;1256;16476;0;2;0;18089;0;0;0;0;3;0;11598;0;0;0;0;4;0;17020;0;0;0;0;5;0;0;0;0;0;0;0;0;6;0;29337;2;0;0;0;0;0;7;0;24507;0;0;0;0;8;0;24386;0;0;0;0;9;0;13186;0;0;0;0
12.03.21;22:30:00;1;1283;16372;0;2;0;18089;0;0;0;0;3;0;11598;0;0;0;0;4;0;17020;0;0;0;0;5;0;0;0;0;0;0;0;0;6;0;29337;2;0;0;0;0;0;7;0;24507;0;0;0;0;8;0;24386;0;0;0;0;9;0;13186;0;0;0;0
12.03.21;22:25:00;1;1297;16265;0;2;0;18089;0;0;0;0;3;0;11598;0;0;0;0;4;0;17020;0;0;0;0;5;0;0;0;0;0;0;0;0;6;0;29337;2;0;0;0;0;0;7;0;24507;0;0;0;0;8;0;24386;0;0;0;0;9;0;13186;0;0;0;0
12.03.21;22:20:00;1;1195;16156;0;2;0;18089;0;0;0;0;3;0;11598;0;0;0;0;4;0;17020;0;0;0;0;5;0;0;0;0;0;0;0;0;6;0;29337;2;0;0;0;0;0;7;0;24507;0;0;0;0;8;0;24386;0;0;0;0;9;0;13186;0;0;0;0
12.03.21;22:15:00;1;1155;16057;0;2;0;18089;0;0;0;0;3;0;11598;0;0;0;0;4;0;17020;0;0;0;0;5;0;0;0;0;0;0;0;0;6;0;29337;2;0;0;0;0;0;7;0;24507;0;0;0;0;8;0;24386;0;0;0;0;9;0;13186;0;0;0;0
12.03.21;22:10:00;1;1042;15961;0;2;0;18089;0;0;0;0;3;0;11598;0;0;0;0;4;0;17020;0;0;0;0;5;0;0;0;0;0;0;0;0;6;0;29337;2;0;0;0;0;0;7;0;24507;0;0;0;0;8;0;24386;0;0;0;0;9;0;13186;0;0;0;0
12.03.21;22:05:00;1;741;15875;0;2;0;18089;0;0;0;0;3;0;11598;0;0;0;0;4;0;17020;0;0;0;0;5;0;0;0;0;0;0;0;0;6;0;29337;2;0;0;0;0;0;7;0;24507;0;0;0;0;8;0;24386;0;0;0;0;9;0;13186;0;0;0;0
12.03.21;22:00:00;1;738;15813;0;2;0;18089;0;0;0;0;3;0;11598;0;0;0;0;4;0;17020;0;0;0;0;5;0;0;0;0;0;0;0;0;6;0;29337;2;0;0;0;0;0;7;0;24507;0;0;0;0;8;0;24386;0;0;0;0;9;0;13186;0;0;0;0
12.03.21;21:55:00;1;1158;15752;0;2;0;18089;0;0;0;0;3;0;11598;0;0;0;0;4;0;17020;0;0;0;0;5;0;0;0;0;0;0;0;0;6;0;29337;2;0;0;0;0;0;7;0;24507;0;0;0;0;8;0;24386;0;0;0;0;9;0;13186;0;0;0;0
12.03.21;21:50:00;1;1253;15656;0;2;0;18089;0;0;0;0;3;0;11598;0;0;0;0;4;0;17020;0;0;0;0;5;0;0;0;0;0;0;0;0;6;0;29337;2;0;0;0;0;0;7;0;24507;0;0;0;0;8;0;24386;0;0;0;0;9;0;13186;0;0;0;0
12.03.21;21:45:00;1;1280;15560;0;2;0;18089;0;0;0;0;3;0;11598;0;0;0;0;4;0;17020;0;0;0;0;5;0;0;0;0;0;0;0;0;6;0;29337;2;0;0;0;0;0;7;0;24507;0;0;0;0;8;0;24386;0;0;0;0;9;0;13186;0;0;0;0
12.03.21;21:40:00;1;1302;15454;0;2;0;18089;0;0;0;0;3;0;11598;0;0;0;0;4;0;17020;0;0;0;0;5;0;0;0;0;0;0;0;0;6;0;29337;2;0;0;0;0;0;7;0;24507;0;0;0;0;8;0;24386;0;0;0;0;9;0;13186;0;0;0;0
12.03.21;21:35:00;1;1254;15347;0;2;0;18089;0;0;0;0;3;0;11598;0;0;0;0;4;0;17020;0;0;0;0;5;0;0;0;0;0;0;0;0;6;0;29337;2;0;0;0;0;0;7;0;24507;0;0;0;0;8;0;24386;0;0;0;0;9;0;13186;0;0;0;0
12.03.21;21:30:00;1;1244;15243;0;2;0;18089;0;0;0;0;3;0;11598;0;0;0;0;4;0;17020;0;0;0;0;5;0;0;0;0;0;0;0;0;6;0;29337;2;0;0;0;0;0;7;0;24507;0;0;0;0;8;0;24386;0;0;0;0;9;0;13186;0;0;0;0
12.03.21;21:25:00;1;1210;15140;0;2;0;18089;0;0;0;0;3;0;11598;0;0;0;0;4;0;17020;0;0;0;0;5;0;0;0;0;0;0;0;0;6;0;29337;2;0;0;0;0;0;7;0;24507;0;0;0;0;8;0;24386;0;0;0;0;9;0;13186;0;0;0;0
12.03.21;21:20:00;1;1218;15040;0;2;0;18089;0;0;0;0;3;0;11598;0;0;0;0;4;0;17020;0;0;0;0;5;0;0;0;0;0;0;0;0;6;0;29337;2;0;0;0;0;0;7;0;24507;0;0;0;0;8;0;24386;0;0;0;0;9;0;13186;0;0;0;0
12.03.21;21:15:00;1;1261;14939;0;2;0;18089;0;0;0;0;3;0;11598;0;0;0;0;4;0;17020;0;0;0;0;5;0;0;0;0;0;0;0;0;6;0;29337;2;0;0;0;0;0;7;0;24507;0;0;0;0;8;0;24386;0;0;0;0;9;0;13186;0;0;0;0
12.03.21;21:10:00;1;1282;14836;0;2;0;18089;0;0;0;0;3;0;11598;0;0;0;0;4;0;17020;0;0;0;0;5;0;0;0;0;0;0;0;0;6;0;29337;2;0;0;0;0;0;7;0;24507;0;0;0;0;8;0;24386;0;0;0;0;9;0;13186;0;0;0;0
12.03.21;21:05:00;1;1346;14730;0;2;0;18089;0;0;0;0;3;0;11598;0;0;0;0;4;0;17020;0;0;0;0;5;0;0;0;0;0;0;0;0;6;0;29337;2;0;0;0;0;0;7;0;24507;0;0;0;0;8;0;24386;0;0;0;0;9;0;13186;0;0;0;0
12.03.21;21:00:00;1;1357;14617;0;2;0;18089;0;0;0;0;3;0;11598;0;0;0;0;4;0;17020;0;0;0;0;5;0;0;0;0;0;0;0;0;6;0;29337;2;0;0;0;0;0;7;0;24507;0;0;0;0;8;0;24386;0;0;0;0;9;0;13186;0;0;0;0
12.03.21;20:55:00;1;1434;14505;0;2;0;18089;0;0;0;0;3;0;11598;0;0;0;0;4;0;17020;0;0;0;0;5;0;0;0;0;0;0;0;0;6;0;29337;2;0;0;0;0;0;7;0;24507;0;0;0;0;8;0;24386;0;0;0;0;9;0;13186;0;0;0;0
12.03.21;20:50:00;1;1273;14384;0;2;0;18089;0;0;0;0;3;0;11598;0;0;0;0;4;0;17020;0;0;0;0;5;0;0;0;0;0;0;0;0;6;0;29337;2;0;0;0;0;0;7;0;24507;0;0;0;0;8;0;24386;0;0;0;0;9;0;13186;0;0;0;0
12.03.21;20:45:00;1;824;14278;0;2;0;18089;0;0;0;0;3;0;11598;0;0;0;0;4;0;17020;0;0;0;0;5;0;0;0;0;0;0;0;0;6;0;29337;2;0;0;0;0;0;7;0;24507;0;0;0;0;8;0;24386;0;0;0;0;9;0;13186;0;0;0;0
12.03.21;20:40:00;1;1307;14205;0;2;0;18089;0;0;0;0;3;0;11598;0;0;0;0;4;0;17020;0;0;0;0;5;0;0;0;0;0;0;0;0;6;0;29337;2;0;0;0;0;0;7;0;24507;0;0;0;0;8;0;24386;0;0;0;0;9;0;13186;0;0;0;0
12.03.21;20:35:00;1;1308;14097;0;2;0;18089;0;0;0;0;3;0;11598;0;0;0;0;4;0;17020;0;0;0;0;5;0;0;0;0;0;0;0;0;6;0;29337;2;0;0;0;0;0;7;0;24507;0;0;0;0;8;0;24386;0;0;0;0;9;0;13186;0;0;0;0
12.03.21;20:30:00;1;1218;13985;0;2;0;18089;0;0;0;0;3;0;11598;0;0;0;0;4;0;17020;0;0;0;0;5;0;0;0;0;0;0;0;0;6;0;29337;2;0;0;0;0;0;7;0;24507;0;0;0;0;8;0;24386;0;0;0;0;9;0;13186;0;0;0;0
12.03.21;20:25:00;1;1183;13881;0;2;0;18089;0;0;0;0;3;0;11598;0;0;0;0;4;0;17020;0;0;0;0;5;0;0;0;0;0;0;0;0;6;0;29337;2;0;0;0;0;0;7;0;24507;0;0;0;0;8;0;24386;0;0;0;0;9;0;13186;0;0;0;0
12.03.21;20:20:00;1;1291;13781;0;2;0;18089;0;0;0;0;3;0;11598;0;0;0;0;4;0;17020;0;0;0;0;5;0;0;0;0;0;0;0;0;6;0;29337;2;0;0;0;0;0;7;0;24507;0;0;0;0;8;0;24386;0;0;0;0;9;0;13186;0;0;0;0
12.03.21;20:15:00;1;1303;13673;0;2;0;18089;0;0;0;0;3;0;11598;0;0;0;0;4;0;17020;0;0;0;0;5;0;0;0;0;0;0;0;0;6;0;29337;2;0;0;0;0;0;7;0;24507;0;0;0;0;8;0;24386;0;0;0;0;9;0;13186;0;0;0;0
12.03.21;20:10:00;1;1532;13564;0;2;0;18089;0;0;0;0;3;0;11598;0;0;0;0;4;0;17020;0;0;0;0;5;0;0;0;0;0;0;0;0;6;0;29337;2;0;0;0;0;0;7;0;24507;0;0;0;0;8;0;24386;0;0;0;0;9;0;13186;0;0;0;0
12.03.21;20:05:00;1;1546;13436;0;2;0;18089;0;0;0;0;3;0;11598;0;0;0;0;4;0;17020;0;0;0;0;5;0;0;0;0;0;0;0;0;6;0;29337;2;0;0;0;0;0;7;0;24507;0;0;0;0;8;0;24386;0;0;0;0;9;0;13186;0;0;0;0
12.03.21;20:00:00;1;1605;13307;0;2;0;18089;0;0;0;0;3;0;11598;0;0;0;0;4;0;17020;0;0;0;0;5;0;0;0;0;0;0;0;0;6;0;29337;2;0;0;0;0;0;7;0;24507;0;0;0;0;8;0;24386;0;0;0;0;9;0;13186;0;0;0;0
12.03.21;19:55:00;1;1558;13172;0;2;0;18089;0;0;0;0;3;0;11598;0;0;0;0;4;0;17020;0;0;0;0;5;0;0;0;0;0;0;0;0;6;0;29337;2;0;0;0;0;0;7;0;24507;0;0;0;0;8;0;24386;0;0;0;0;9;0;13186;0;0;0;0
12.03.21;19:50:00;1;1503;13030;0;2;0;18089;0;0;0;0;3;0;11598;0;0;0;0;4;0;17020;0;0;0;0;5;0;0;0;0;0;0;0;0;6;0;29337;2;0;0;0;0;0;7;0;24507;0;0;0;0;8;0;24386;0;0;0;0;9;0;13186;0;0;0;0
12.03.21;19:45:00;1;1424;12904;0;2;0;18089;0;0;0;0;3;0;11598;0;0;0;0;4;0;17020;0;0;0;0;5;0;0;0;0;0;0;0;0;6;0;29337;2;0;0;0;0;0;7;0;24507;0;0;0;0;8;0;24386;0;0;0;0;9;0;13186;0;0;0;0
12.03.21;19:40:00;1;1517;12784;0;2;0;18089;0;0;0;0;3;0;11598;0;0;0;0;4;0;17020;0;0;0;0;5;0;0;0;0;0;0;0;0;6;0;29337;2;0;0;0;0;0;7;0;24507;0;0;0;0;8;0;24386;0;0;0;0;9;0;13186;0;0;0;0
12.03.21;19:35:00;1;1591;12659;0;2;0;18089;0;0;0;0;3;0;11598;0;0;0;0;4;0;17020;0;0;0;0;5;0;0;0;0;0;0;0;0;6;0;29337;0;0;0;0;0;0;7;0;24507;0;0;0;0;8;0;24386;0;0;0;0;9;0;13186;0;0;0;0
12.03.21;19:30:00;1;2654;12525;0;2;0;18089;0;0;0;0;3;0;11598;0;0;0;0;4;0;17020;0;0;0;0;5;0;0;0;0;0;0;0;0;6;0;29337;2;0;0;0;0;0;7;0;24507;0;0;0;0;8;0;24386;0;0;0;0;9;0;13186;0;0;0;0
12.03.21;19:25:00;1;2101;12325;0;2;0;18089;0;0;0;0;3;0;11598;0;0;0;0;4;0;17020;0;0;0;0;5;0;0;0;0;0;0;0;0;6;0;29337;2;0;0;0;0;0;7;0;24507;0;0;0;0;8;0;24386;0;0;0;0;9;0;13186;0;0;0;0
12.03.21;19:20:00;1;2556;12163;0;2;0;18089;0;0;0;0;3;0;11598;0;0;0;0;4;0;17020;0;0;0;0;5;0;0;0;0;0;0;0;0;6;0;29337;2;0;0;0;0;0;7;0;24507;0;0;0;0;8;0;24386;0;0;0;0;9;0;13186;0;0;0;0
12.03.21;19:15:00;1;4111;11980;0;2;0;18089;0;0;0;0;3;0;11598;0;0;0;0;4;0;17020;0;0;0;0;5;0;0;0;0;0;0;0;0;6;0;29337;2;0;0;0;0;0;7;0;24507;0;0;0;0;8;0;24386;0;0;0;0;9;0;13186;0;0;0;0
12.03.21;19:10:00;1;3716;11638;0;2;0;18089;0;0;0;0;3;0;11598;0;0;0;0;4;0;17020;0;0;0;0;5;0;0;0;0;0;0;0;0;6;0;29337;2;0;0;0;0;0;7;0;24507;0;0;0;0;8;0;24386;0;0;0;0;9;0;13186;0;0;0;0
12.03.21;19:05:00;1;3213;11317;0;2;0;18089;0;0;0;0;3;0;11598;0;0;0;0;4;0;17020;0;0;0;0;5;0;0;0;0;0;0;0;0;6;0;29337;2;0;0;0;0;0;7;0;24507;0;0;0;0;8;0;24386;0;0;0;0;9;0;13186;0;0;0;0
12.03.21;19:00:00;1;2627;11050;0;2;0;18089;0;0;0;0;3;0;11598;0;0;0;0;4;0;17020;0;0;0;0;5;0;0;0;0;0;0;0;0;6;0;29337;2;0;0;0;0;0;7;0;24507;0;0;0;0;8;0;24386;0;0;0;0;9;0;13186;0;0;0;0
12.03.21;18:55:00;1;3747;10788;0;2;0;18089;0;0;0;0;3;0;11598;0;0;0;0;4;0;17020;0;0;0;0;5;0;0;0;0;0;0;0;0;6;0;29337;2;0;0;0;0;0;7;0;24507;0;0;0;0;8;0;24386;0;0;0;0;9;0;13186;0;0;0;0
12.03.21;18:50:00;1;3093;10474;0;2;0;18089;0;0;0;0;3;0;11598;0;0;0;0;4;0;17020;0;0;0;0;5;0;0;0;0;0;0;0;0;6;0;29337;2;0;0;0;0;0;7;0;24507;0;0;0;0;8;0;24386;0;0;0;0;9;0;13186;0;0;0;0
12.03.21;18:45:00;1;1624;10208;0;2;0;18089;0;0;0;0;3;0;11598;0;0;0;0;4;0;17020;0;0;0;0;5;0;0;0;0;0;0;0;0;6;0;29337;2;0;0;0;0;0;7;0;24507;0;0;0;0;8;0;24386;0;0;0;0;9;0;13186;0;0;0;0
12.03.21;18:40:00;1;1276;10078;0;2;0;18089;0;0;0;0;3;0;11598;0;0;0;0;4;0;17020;0;0;0;0;5;0;0;0;0;0;0;0;0;6;0;29337;2;0;0;0;0;0;7;0;24507;0;0;0;0;8;0;24386;0;0;0;0;9;0;13186;0;0;0;0
12.03.21;18:35:00;1;1402;9971;0;2;0;18089;0;0;0;0;3;0;11598;0;0;0;0;4;0;17020;0;0;0;0;5;0;0;0;0;0;0;0;0;6;0;29337;2;0;0;0;0;0;7;0;24507;0;0;0;0;8;0;24386;0;0;0;0;9;0;13186;0;0;0;0
12.03.21;18:30:00;1;1181;9863;0;2;0;18089;0;0;128;7;3;0;11598;0;0;243;14;4;0;17020;0;0;0;0;5;0;0;0;0;0;0;0;0;6;0;29337;2;0;0;0;0;0;7;0;24507;0;0;0;0;8;0;24386;0;0;0;0;9;0;13186;0;0;0;0
12.03.21;18:25:00;1;1275;9763;0;2;0;18089;6;0;294;15;3;0;11598;6;0;331;17;4;0;17020;0;0;56;15;5;0;0;0;0;0;0;0;0;6;0;29337;2;0;0;0;0;0;7;0;24507;0;0;0;0;8;0;24386;0;0;0;0;9;0;13186;0;0;0;0
12.03.21;18:20:00;1;856;9658;0;2;0;18089;6;0;341;15;3;0;11598;6;2;402;18;4;0;17020;1;0;114;18;5;0;0;0;0;0;0;0;0;6;0;29337;1;0;0;0;0;3;7;0;24507;0;0;0;0;8;0;24386;0;0;0;0;9;0;13186;0;0;187;10
12.03.21;18:15:00;1;1023;9582;0;2;0;18089;6;0;353;16;3;0;11598;6;1;425;18;4;0;17020;1;0;129;18;5;0;0;0;0;0;0;0;0;6;0;29337;1;8;1;179;386;25;7;0;24507;0;0;224;17;8;0;24386;0;0;222;16;9;0;13186;6;0;279;15
12.03.21;18:10:00;1;1016;9496;0;2;0;18089;6;0;382;16;3;1;11598;4;4;442;18;4;0;17020;1;0;183;19;5;0;0;0;0;0;0;0;0;6;0;29337;23;8;0;181;538;26;7;0;24507;6;0;359;21;8;0;24386;6;0;359;20;9;0;13186;6;0;375;15
12.03.21;18:05:00;1;1208;9412;0;2;0;18089;6;0;405;17;3;1;11598;3;6;487;18;4;0;17020;1;0;205;20;5;0;0;0;0;0;0;0;0;6;16;29337;1;8;14;528;509;27;7;1;24507;6;4;416;22;8;0;24386;6;2;420;21;9;0;13186;4;0;459;16
12.03.21;18:00:00;1;986;9315;0;2;72;18089;6;100;368;17;3;27;11598;6;45;488;19;4;34;17020;3;36;198;20;5;0;0;0;0;0;0;0;0;6;68;29336;4;31;33;455;426;28;7;32;24507;6;51;461;22;8;1;24386;6;4;468;21;9;2;13186;3;7;471;16
12.03.21;17:55:00;1;1447;9232;0;2;106;18084;4;142;364;18;3;12;11596;4;19;542;19;4;59;17017;3;62;197;20;5;0;0;0;0;0;0;0;0;6;104;29330;4;41;43;455;426;28;7;80;24505;4;119;405;22;8;37;24386;6;67;421;22;9;10;13186;6;20;500;16
12.03.21;17:50:00;1;1187;9106;0;2;128;18075;4;168;381;18;3;72;11595;4;112;474;20;4;69;17012;3;72;203;21;5;0;0;0;0;0;0;0;0;6;143;29320;4;62;65;455;426;28;7;106;24498;4;142;423;22;8;91;24383;4;124;417;22;9;13;13185;6;20;531;17
12.03.21;17:45:00;1;991;9008;0;2;152;18064;4;193;371;19;3;83;11588;4;126;498;20;4;90;17006;5;94;207;21;5;0;0;0;0;0;0;0;0;6;166;29308;4;84;86;455;426;28;7;127;24489;4;168;443;23;8;111;24375;4;155;450;22;9;47;13184;6;70;470;17
12.03.21;17:40:00;1;842;8928;0;2;160;18052;4;204;382;19;3;93;11582;4;135;478;20;4;91;16999;3;95;212;21;5;0;0;0;0;0;0;0;0;6;167;29294;4;93;93;455;426;28;7;132;24479;4;174;424;23;8;129;24366;4;167;425;22;9;61;13181;4;89;443;17
12.03.21;17:35:00;1;1248;8856;0;2;187;18038;4;226;378;20;3;108;11574;4;147;493;20;4;109;16991;5;113;222;22;5;0;0;0;0;0;0;0;0;6;176;29280;4;89;88;455;426;28;7;154;24468;4;186;430;23;8;142;24355;4;181;433;23;9;62;13176;4;92;448;18
12.03.21;17:30:00;1;1509;8744;0;2;496;18023;4;542;363;21;3;235;11565;4;278;482;21;4;396;16982;5;413;238;22;5;0;0;0;0;0;0;0;0;6;230;29266;4;127;129;455;426;28;7;557;24455;4;604;454;24;8;325;24343;4;375;472;23;9;69;13170;4;99;467;18
12.03.21;17:25:00;1;2455;8626;0;2;214;17984;4;255;376;21;3;124;11546;4;166;511;21;4;150;16952;5;157;226;23;5;0;0;0;0;0;0;0;0;6;186;29247;4;85;85;455;426;28;7;217;24413;4;253;443;24;8;185;24318;4;231;433;23;9;13;13165;6;19;569;18
12.03.21;17:20:00;1;2726;8430;0;2;264;17966;4;310;376;22;3;141;11536;4;182;469;22;4;152;16940;5;158;225;23;5;0;0;0;0;0;0;0;0;6;218;29231;4;118;125;501;477;28;7;162;24395;4;212;460;24;8;165;24303;4;199;398;23;9;75;13163;4;108;477;19
12.03.21;17:15:00;1;2835;8204;0;2;1424;17945;4;1507;376;24;3;824;11525;4;886;436;22;4;1161;16927;5;1209;248;24;5;0;0;0;0;0;0;0;0;6;598;29211;4;311;329;604;575;28;7;1470;24381;4;1546;484;24;8;867;24289;4;916;356;23;9;100;13157;4;135;513;19
12.03.21;17:10:00;1;746;7977;0;2;1559;17826;4;1649;382;24;3;909;11455;4;975;435;22;4;1314;16830;5;1369;250;24;5;0;0;0;0;0;0;0;0;6;733;29160;4;363;373;605;578;28;7;1732;24257;4;1827;492;24;8;1272;24217;4;1336;374;24;9;96;13149;4;128;371;19
12.03.21;17:05:00;1;492;7897;0;2;1786;17698;4;1886;388;24;3;1025;11381;4;1094;439;23;4;1503;16722;5;1566;248;25;5;0;0;0;0;0;0;0;0;6;891;29098;4;445;459;609;582;28;7;1780;24114;4;1883;499;24;8;1454;24111;4;1533;409;24;9;161;13140;4;191;354;19
12.03.21;17:00:00;1;655;7856;0;2;1987;17547;4;2098;390;24;3;1117;11295;4;1189;440;23;4;1674;16595;5;1744;245;24;5;0;0;0;0;0;0;0;0;6;1080;29022;4;571;567;609;581;28;7;2216;23975;4;2332;488;24;8;1986;23998;4;2084;444;24;9;590;13128;4;636;352;20
12.03.21;16:55:00;1;1054;7805;0;2;2229;17382;4;2345;396;24;3;1227;11202;4;1300;443;23;4;1886;16457;5;1964;245;24;5;0;0;0;0;0;0;0;0;6;1405;28931;4;717;719;610;578;28;7;2452;23791;4;2566;487;24;8;2258;23834;4;2368;461;24;9;812;13081;4;860;351;21
12.03.21;16:50:00;1;907;7720;0;2;2680;17194;4;2819;415;22;3;1571;11098;4;1658;451;22;4;2388;16298;5;2487;249;23;5;0;0;0;0;0;0;0;0;6;2030;28807;4;1035;1019;621;587;28;7;3191;23584;4;3350;492;23;8;3069;23643;4;3218;484;23;9;1168;13012;4;1233;378;21
12.03.21;16:45:00;1;1003;7631;0;2;1570;16970;4;1659;403;20;3;890;10969;4;957;495;21;4;1469;16100;5;1530;249;22;5;0;0;0;0;0;0;0;0;6;1328;28638;4;691;679;601;575;28;7;2327;23321;4;2446;489;24;8;1318;23390;4;1391;294;13;9;445;12916;4;493;502;20
12.03.21;16:40:00;1;649;7545;0;2;368;16840;4;417;394;20;3;225;10894;4;271;502;21;4;273;15979;5;285;231;23;5;0;0;0;0;0;0;0;0;6;439;28540;4;231;238;570;554;28;7;386;23137;4;432;457;24;8;373;23195;4;415;454;23;9;181;12876;4;214;513;20
12.03.21;16:35:00;1;382;7492;0;2;502;16809;4;555;391;21;3;302;10875;4;350;489;22;4;475;15956;5;494;231;23;5;0;0;0;0;0;0;0;0;6;684;28504;4;338;348;572;553;29;7;591;23104;4;635;463;24;8;519;23164;4;566;457;24;9;230;12861;4;272;512;21
12.03.21;16:30:00;1;410;7460;0;2;1251;16769;4;1335;407;21;3;669;10850;4;729;483;22;4;988;15918;5;1029;240;24;5;0;0;0;0;0;0;0;0;6;1082;28450;4;560;546;586;546;29;7;1414;23057;4;1503;484;24;8;1429;23121;4;1506;480;24;9;691;12841;4;751;517;21
12.03.21;16:25:00;1;418;7426;0;2;472;16666;4;525;400;21;3;292;10795;4;343;509;22;4;391;15837;5;407;239;24;5;0;0;0;0;0;0;0;0;6;630;28358;4;326;326;584;563;29;7;503;22941;4;559;459;24;8;547;23004;4;598;480;24;9;284;12785;4;325;505;21
12.03.21;16:20:00;1;380;7391;0;2;486;16626;4;538;396;22;3;300;10770;4;351;502;22;4;401;15804;5;418;240;24;5;0;0;0;0;0;0;0;0;6;693;28306;4;358;361;582;562;29;7;469;22896;4;521;445;25;8;473;22954;4;523;453;24;9;248;12759;4;292;514;21
12.03.21;16:15:00;1;432;7359;0;2;562;16585;4;617;399;22;3;350;10745;4;404;506;23;4;465;15771;5;485;237;25;5;0;0;0;0;0;0;0;0;6;783;28248;4;396;397;585;560;29;7;541;22857;4;591;457;25;8;540;22915;4;592;467;25;9;282;12738;4;329;520;22
12.03.21;16:10:00;1;435;7323;0;2;369;16538;4;420;398;23;3;230;10716;4;278;498;23;4;299;15732;5;311;232;25;5;0;0;0;0;0;0;0;0;6;554;28183;4;287;297;584;558;29;7;374;22812;4;418;471;25;8;381;22870;4;423;463;25;9;205;12715;4;243;500;22
12.03.21;16:05:00;1;434;7288;0;2;396;16506;4;449;396;24;3;245;10696;4;289;495;23;4;318;15705;5;331;231;26;5;0;0;0;0;0;0;0;0;6;602;28137;4;283;289;580;550;29;7;357;22778;4;406;456;26;8;355;22836;4;398;459;26;9;185;12696;4;224;513;23
12.03.21;16:00:00;1;485;7251;0;2;1256;16472;4;1346;401;26;3;717;10675;4;781;492;24;4;987;15678;5;1028;238;27;5;0;0;0;0;0;0;0;0;6;1315;28082;4;659;663;591;564;30;7;807;22748;4;865;469;27;8;796;22805;4;849;465;26;9;419;12680;4;470;522;24
12.03.21;15:55:00;1;540;7214;0;2;1688;16375;4;1793;409;25;3;875;10619;4;947;514;24;4;1308;15601;5;1362;240;27;5;0;0;0;0;0;0;0;0;6;1795;27966;4;894;895;592;574;30;7;2034;22683;4;2146;458;27;8;2203;22741;4;2319;479;27;9;1328;12647;4;1423;528;24
12.03.21;15:50:00;1;421;7166;0;2;699;16238;4;762;405;25;3;441;10548;4;494;502;24;4;589;15496;5;613;239;27;5;0;0;0;0;0;0;0;0;6;977;27832;4;496;488;593;567;30;7;711;22521;4;764;461;27;8;705;22567;4;762;457;27;9;377;12543;4;424;518;24
12.03.21;15:45:00;1;685;7130;0;2;506;16180;4;560;394;26;3;319;10511;4;367;496;24;4;425;15447;5;442;236;28;5;0;0;0;0;0;0;0;0;6;744;27751;4;378;387;578;559;30;7;574;22462;4;630;467;28;8;575;22509;4;625;464;28;9;305;12511;4;353;503;25
12.03.21;15:40:00;1;660;7070;0;2;406;16137;4;456;391;27;3;248;10484;4;295;503;25;4;330;15411;5;344;233;28;5;0;0;0;0;0;0;0;0;6;657;27691;4;341;342;576;558;31;7;433;22414;4;482;467;29;8;428;22460;4;477;450;28;9;223;12485;4;263;507;25
12.03.21;15:35:00;1;2380;7014;0;2;570;16103;4;629;402;28;3;357;10463;4;406;492;26;4;473;15383;5;493;235;29;5;0;0;0;0;0;0;0;0;6;893;27635;4;462;461;586;565;31;7;593;22377;4;637;450;29;8;582;22424;4;634;464;29;9;305;12467;4;348;509;26
12.03.21;15:30:00;1;2746;6806;0;2;785;16056;4;852;392;31;3;497;10434;4;553;509;27;4;674;15344;5;702;237;31;5;0;0;0;0;0;0;0;0;6;1182;27558;4;602;601;589;564;31;7;844;22328;4;904;457;30;8;796;22376;4;884;452;30;9;439;12441;4;492;511;28
12.03.21;15:25:00;1;2863;6580;0;2;2632;15991;4;2811;398;32;3;1422;10393;4;1515;519;28;4;2240;15288;5;2333;244;31;5;0;0;0;0;0;0;0;0;6;2855;27457;4;1468;1406;605;572;31;7;3161;22258;4;3324;467;30;8;3447;22310;4;3623;470;30;9;2150;12405;4;2292;557;29
12.03.21;15:20:00;1;2605;6344;0;2;1707;15779;4;1817;414;33;3;945;10277;4;1022;515;28;4;1476;15108;5;1538;242;32;5;0;0;0;0;0;0;0;0;6;2156;27206;4;1143;1098;599;568;31;7;2898;21967;4;3057;498;30;8;3294;22003;4;3459;494;30;9;1695;12214;4;1807;536;29
12.03.21;15:15:00;1;2465;6131;0;2;1457;15639;4;1558;416;34;3;911;10200;4;986;515;28;4;1365;14989;5;1422;243;32;5;0;0;0;0;0;0;0;0;6;2261;27014;4;1148;1118;598;571;32;7;2353;21738;4;2478;473;31;8;2190;21730;4;2309;471;30;9;1189;12072;4;1275;514;29
12.03.21;15:10:00;1;2257;5929;0;2;2738;15516;4;2891;403;35;3;1450;10123;4;1546;518;29;4;2298;14873;5;2393;241;33;5;0;0;0;0;0;0;0;0;6;2843;26837;4;1431;1435;611;574;32;7;3356;21544;4;3529;460;31;8;3871;21547;4;4066;472;31;9;2260;11972;4;2404;518;30
12.03.21;15:05:00;1;1941;5739;0;2;1528;15279;4;1627;398;35;3;1053;9999;4;1134;515;29;4;1589;14681;5;1655;242;34;5;0;0;0;0;0;0;0;0;6;2075;26554;4;1064;1030;591;569;32;7;2661;21274;4;2806;462;31;8;2710;21223;4;2857;477;31;9;1695;11783;4;1812;525;29
12.03.21;15:00:00;1;756;5586;0;2;3719;15154;4;3935;413;39;3;1770;9912;4;1869;445;31;4;2539;14550;5;2644;234;36;5;0;0;0;0;0;0;0;0;6;3703;26386;4;1950;1871;583;559;32;7;3895;21061;4;4096;453;31;8;3338;21006;4;3511;449;31;9;1749;11647;4;1860;496;31
12.03.21;14:55:00;1;567;5532;0;2;4805;14832;4;5067;395;38;3;2722;9764;4;2861;480;30;4;4299;14344;5;4477;242;34;5;0;0;0;0;0;0;0;0;6;5170;26033;4;2699;2557;602;581;32;7;5867;20758;4;6165;464;31;8;5847;20745;4;6134;464;31;9;3260;11506;4;3454;514;32
12.03.21;14:50:00;1;357;5483;0;2;4461;14430;4;4708;410;37;3;2664;9543;4;2805;470;30;4;3935;13987;5;4099;243;33;5;0;0;0;0;0;0;0;0;6;5134;25597;4;2662;2539;603;581;32;7;5791;20271;4;6084;476;30;8;5691;20259;4;6001;469;30;9;3144;11233;4;3336;529;30
12.03.21;14:45:00;1;383;5454;0;2;4053;14066;4;4276;418;34;3;2360;9327;4;2485;486;29;4;3546;13671;5;3694;246;32;5;0;0;0;0;0;0;0;0;6;4353;25142;4;2282;2222;579;560;32;7;4586;19790;4;4817;471;30;8;4379;19784;4;4590;473;30;9;2543;10971;4;2691;505;29
12.03.21;14:40:00;1;366;5422;0;2;1183;13735;4;1269;414;32;3;748;9135;4;816;516;29;4;1038;13383;5;1082;244;32;5;0;0;0;0;0;0;0;0;6;1984;24776;4;1041;1004;600;567;32;7;1931;19415;4;2037;482;30;8;1876;19435;4;1978;476;30;9;959;10762;4;1034;530;28
12.03.21;14:35:00;1;359;5391;0;2;986;13636;4;1062;408;33;3;633;9072;4;697;521;29;4;883;13296;5;919;242;33;5;0;0;0;0;0;0;0;0;6;1450;24634;4;747;737;595;565;32;7;1195;19246;4;1271;480;31;8;1183;19272;4;1259;475;31;9;644;10678;4;707;521;29
12.03.21;14:30:00;1;320;5361;0;2;945;13554;4;1021;400;36;3;602;9020;4;667;508;31;4;839;13223;5;874;240;35;5;0;0;0;0;0;0;0;0;6;1381;24515;4;707;692;589;560;33;7;1195;19147;4;1278;472;32;8;1186;19175;4;1263;460;32;9;648;10625;4;708;509;30
12.03.21;14:25:00;1;355;5335;0;2;2542;13476;4;2696;391;41;3;1508;8970;4;1608;501;33;4;2008;13153;5;2091;236;37;5;0;0;0;0;0;0;0;0;6;2959;24400;4;1528;1480;574;558;33;7;2884;19048;4;3042;454;32;8;2898;19075;4;3061;454;32;9;1452;10570;4;1554;502;33